Dallas/Ft Worth, TX

2:38 PM CDT on August 18, 2017 (GMT -0500)
Dallas-Fort Worth International

Weather History for KDFW - September, 2012

Change the Weather History Date:

Saturday, September 8, 2012

  Actual Average Record
Temperature  
Mean Temperature 77 °F 81 °F  
Max Temperature 87 °F 91 °F 100 °F (1998)
Min Temperature 67 °F 70 °F 55 °F (1898)
Degree Days  
Heating Degree Days 0 0  
Month to date heating degree days 0 0  
Since 1 July heating degree days 0 0  
Cooling Degree Days 12 16  
Month to date cooling degree days 189 135  
Year to date cooling degree days 2849 2317  
Growing Degree Days 26 (Base 50)    
Moisture  
Dew Point 52 °F    
Average Humidity 52    
Maximum Humidity 81    
Minimum Humidity 23    
Precipitation  
Precipitation 0.03 in 0.10 in 5.24 in (2010)
Month to date precipitation 0.03 0.76  
Year to date precipitation 26.52 24.87  
Sea Level Pressure  
Sea Level Pressure 30.02 in    
Wind  
Wind Speed 17 mph (North)    
Max Wind Speed 32 mph    
Max Gust Speed 40 mph    
Visibility 10 miles    
Events Rain    
T = Trace of Precipitation, MM = Missing Value Source: NWS Daily Summary

Daily Weather History Graph

Daily Weather History Graph

Search for Another Location

Airport or City:

Trip Planner

Search our weather history database for the weather conditions in past years. The results will help you decide how hot, cold, wet, or windy it might be!

Date:

Astronomy

Sep. 08, 2012 Rise Set
Actual Time 7:07 AM CDT 7:43 PM CDT
Civil Twilight 6:42 AM CDT 8:07 PM CDT
Nautical Twilight 6:13 AM CDT 8:37 PM CDT
Astronomical Twilight 5:43 AM CDT 9:06 PM CDT
Moon 12:04 AM CDT (9/8) 2:27 PM CDT (9/8)
Length of Visible Light 13h 25m
Length of Day
12h 35m
Waning Gibbous, 48% of the Moon is Illuminated
Sep 8
Waning Gibbous
Sep 15
New
Sep 22
First Quarter
Sep 29
Full
Oct 8
Last Quarter

Hourly Weather History & Observations

Time (CDT) Temp. Dew Point Humidity Pressure Visibility Wind Dir Wind Speed Gust Speed Precip Events Conditions
12:53 AM 79.0 °F 60.1 °F 52% 29.91 in 10.0 mi North 24.2 mph 32.2 mph N/A   Mostly Cloudy
1:53 AM 77.0 °F 60.1 °F 56% 29.92 in 10.0 mi North 31.1 mph 39.1 mph N/A   Scattered Clouds
2:53 AM 72.0 °F 62.1 °F 71% 29.97 in 10.0 mi North 24.2 mph 34.5 mph N/A   Mostly Cloudy
3:02 AM 71.6 °F 60.8 °F 69% 30.00 in 10.0 mi North 21.9 mph 32.2 mph N/A   Mostly Cloudy
3:53 AM 70.0 °F 60.1 °F 71% 29.97 in 10.0 mi NNE 25.3 mph 32.2 mph N/A   Mostly Cloudy
4:53 AM 68.0 °F 62.1 °F 81% 29.99 in 10.0 mi NNE 21.9 mph 29.9 mph 0.00 in Rain Light Rain
5:53 AM 66.9 °F 62.1 °F 84% 30.01 in 10.0 mi North 15.0 mph - 0.03 in   Mostly Cloudy
6:30 AM 66.2 °F 60.8 °F 83% 30.04 in 10.0 mi North 18.4 mph 26.5 mph N/A   Overcast
6:53 AM 66.9 °F 61.0 °F 81% 30.02 in 10.0 mi North 19.6 mph - N/A   Overcast
7:53 AM 66.9 °F 60.1 °F 79% 30.05 in 10.0 mi North 23.0 mph 27.6 mph N/A   Mostly Cloudy
8:53 AM 69.1 °F 57.9 °F 68% 30.06 in 10.0 mi North 19.6 mph 28.8 mph N/A   Scattered Clouds
9:53 AM 72.0 °F 55.0 °F 55% 30.08 in 10.0 mi NNE 23.0 mph 28.8 mph N/A   Scattered Clouds
10:53 AM 75.9 °F 53.1 °F 45% 30.10 in 10.0 mi NNE 18.4 mph 27.6 mph N/A   Partly Cloudy
11:53 AM 79.0 °F 48.0 °F 34% 30.09 in 10.0 mi North 20.7 mph 29.9 mph N/A   Partly Cloudy
12:53 PM 82.0 °F 46.0 °F 28% 30.07 in 10.0 mi North 20.7 mph 31.1 mph N/A   Partly Cloudy
1:53 PM 82.9 °F 46.0 °F 27% 30.06 in 10.0 mi NNE 15.0 mph 26.5 mph N/A   Partly Cloudy
2:53 PM 84.0 °F 45.0 °F 25% 30.04 in 10.0 mi NNE 20.7 mph 27.6 mph N/A   Partly Cloudy
3:53 PM 84.9 °F 44.1 °F 24% 30.01 in 10.0 mi North 23.0 mph - N/A   Partly Cloudy
4:53 PM 86.0 °F 45.0 °F 24% 30.01 in 10.0 mi North 17.3 mph 23.0 mph N/A   Partly Cloudy
5:53 PM 84.9 °F 44.1 °F 24% 30.01 in 10.0 mi North 13.8 mph 21.9 mph N/A   Clear
6:53 PM 84.0 °F 42.1 °F 23% 30.01 in 10.0 mi North 16.1 mph 23.0 mph N/A   Partly Cloudy
7:53 PM 80.1 °F 43.0 °F 27% 30.01 in 10.0 mi North 10.4 mph - N/A   Partly Cloudy
8:53 PM 75.0 °F 45.0 °F 34% 30.04 in 10.0 mi North 6.9 mph - N/A   Partly Cloudy
9:53 PM 75.2 °F 48.2 °F 38% 30.08 in 10.0 mi North 4.6 mph - N/A   Clear
10:53 PM 73.9 °F 48.0 °F 40% 30.07 in 10.0 mi North 5.8 mph - N/A   Clear
11:53 PM 70.0 °F 48.0 °F 46% 30.06 in 10.0 mi NNE 6.9 mph - N/A   Clear